www.pogodaiklimat.ru

Погода и климат >> Архив погоды >> Испания >> Pontevedra


ПОГОДА в Pontevedra

  • Прогноз погоды в Pontevedra
  • Монитор погоды в Pontevedra
  • Климат города

АРХИВ ПОГОДЫ в Pontevedra

Время (UTC), дата Ветер
(напр.,м/с)
 
Видим.   Явления Облачность Т
(С)
Тd
(С)
f
(%)
Тe
(С)
Тes
(С)
Комфортность P
(гПа)
Po
(гПа)
Тmin
(С)
Tmax
(С)
R
(мм)
R24
(мм)
S
(см)
04 19.05 СВ 1 20 км н/о +8.9 +8.1 95 +8 +8 1023.2 1010.0
05 19.05 В 2 20 км н/о +9.0 +7.9 93 +7 +7 1023.3 1010.1
06 19.05 В 2 12 км 9/8 600 м
[Cu med, cong Ac trans]
+8.9 +7.8 93 +7 +7 1023.7 1010.5 +8.6
07 19.05 В 1 20 км н/о +9.7 +8.3 91 +9 +9 1024.2 1011.0
08 19.05 СЗ 1 20 км н/о +11.6 +9.7 88 +11 +11 1024.3 1011.2
09 19.05 С 1 15 км 9/3 300 м
[Cu med, cong Ac trans]
+13.3 +8.1 71 +14 +17 1024.3 1011.3
10 19.05 СЗ 2 20 км н/о +13.8 +8.0 68 +14 +14 1024.4 1011.4
11 19.05 ЮЗ 1 20 км н/о +16.0 +7.5 57 +17 +17 1024.5 1011.6
12 19.05 З 2 15 км 4/4 600 м
[Cu med, cong]
+16.5 +8.5 59 +17 +29 опасность
простуды
1024.4 1011.5
13 19.05 Ю 1 20 км н/о +16.5 +8.5 59 +17 +17 1024.2 1011.3
14 19.05 З 4 20 км н/о +17.2 +6.7 50 +17 +17 1024.0 1011.1
15 19.05 З 3 12 км 4/4 600 м
[Cu med, cong Ci fib]
+16.6 +7.5 55 +16 +23 1023.8 1010.9
16 19.05 З 4 20 км н/о +17.0 +7.6 54 +17 +17 1023.8 1010.9
17 19.05 З 3 19 км н/о +17.0 +8.2 56 +17 +17 1023.6 1010.7
18 19.05 З 5 8000 м мгла 4/0
[Ac cuf]
+16.3 +9.2 63 +15 +17 1023.8 1010.9 +17.3
19 19.05 З 4 20 км н/о +16.1 +9.5 65 +15 +15 1024.0 1011.1
20 19.05 СЗ 4 20 км н/о +14.5 +9.5 72 +13 +13 1024.5 1011.5
21 19.05 СЗ 2 20 км н/о +14.0 +9.6 75 +14 +14 1025.0 1012.0
22 19.05 С 1 20 км н/о +13.9 +9.9 77 +15 +15 1025.1 1012.1
23 19.05 С 1 20 км н/о +13.5 +9.9 79 +14 +14 1024.9 1011.9
00 20.05 СЗ 1 20 км н/о +12.8 +9.8 82 +13 +13 1024.7 1011.6
01 20.05 В 1 20 км н/о +11.8 +9.7 87 +12 +12 1024.2 1011.1
02 20.05 В 1 20 км н/о +10.8 +9.1 89 +10 +10 1023.7 1010.6
03 20.05 СВ 2 20 км н/о +10.4 +8.5 88 +9 +9 1023.2 1010.0
04 20.05 В 2 20 км н/о +10.0 +7.8 86 +9 +9 1022.9 1009.7
05 20.05 С 1 20 км н/о +9.3 +7.4 88 +10 +10 1022.8 1009.6
06 20.05 СВ 1 15 км 4/0
[Ac trans Ci fib]
+9.9 +7.5 85 +9 +10 1023.0 1009.8 +9.3
07 20.05 СВ 1 20 км н/о +10.6 +8.0 84 +10 +10 1022.8 1009.7
08 20.05 СВ 1 20 км н/о +14.7 +8.2 65 +16 +16 1022.6 1009.6
09 20.05 СЗ 1 20 км 3/0
[Ci fib]
+16.3 +9.9 66 +17 +27 1022.4 1009.5
10 20.05 З 2 20 км н/о +18.5 +11.1 62 +19 +19 1021.3 1008.5
11 20.05 З 3 20 км н/о +20.1 +10.8 55 +22 +22 комфорт 1020.9 1008.2
12 20.05 ЮЗ 1 15 км 3/0
[Ci sp]
+22.1 +12.1 53 +24 +45 комфорт 1020.5 1007.9
13 20.05 З 1 20 км н/о +22.4 +12.3 53 +25 +25 комфорт 1020.0 1007.4
14 20.05 З 2 10 км н/о +22.7 +12.9 54 +26 +26 жарко 1019.1 1006.6
15 20.05 ЮЗ 1 10 км 5/0
[Ci sp]
+22.1 +13.4 58 +25 +40 комфорт 1018.4 1005.8
16 20.05 Ю 1 20 км н/о +21.9 +13.5 59 +25 +25 комфорт 1018.4 1005.8
17 20.05 Ю 1 20 км н/о +21.7 +13.6 60 +24 +24 комфорт 1018.0 1005.4
18 20.05 ЮЗ 1 10 км 4/0
[Ci sp]
+21.1 +13.3 61 +23 +26 комфорт 1017.3 1004.7 +22.9
19 20.05 ЮВ 1 20 км н/о +20.2 +13.2 64 +24 +24 комфорт 1016.9 1004.3
20 20.05 ЮВ 1 13 км н/о +18.9 +12.9 68 +21 +21 комфорт 1016.7 1004.0
21 20.05 СЗ 1 20 км н/о +18.5 +13.6 73 +21 +21 комфорт 1016.5 1003.8
22 20.05 штиль 0 20 км н/о +17.3 +13.4 78 +17 +17 1016.2 1003.5
23 20.05 В 1 15 км н/о +16.5 +13.2 81 +18 +18 1015.7 1002.9
00 21.05 СВ 1 19 км н/о +16.4 +12.4 77 +18 +18 1015.2 1002.4
01 21.05 СВ 2 20 км н/о +16.6 +11.7 73 +17 +17 1014.4 1001.6
02 21.05 В 1 20 км н/о +15.7 +11.9 78 +16 +16 1013.9 1001.1
03 21.05 С 1 9000 м н/о +14.9 +11.5 80 +15 +15 1013.4 1000.6
04 21.05 В 2 20 км н/о +17.6 +7.6 52 +18 +18 1011.8 999.1
05 21.05 С 1 20 км н/о +16.3 +7.8 57 +17 +17 1011.6 998.9
06 21.05 В 3 15 км 4/0
[Ac trans Ci fib]
+18.7 +6.5 45 +19 +20 1011.4 998.8 +14.8
07 21.05 СВ 2 20 км н/о +18.0 +8.3 53 +19 +19 1011.8 999.1
08 21.05 СЗ 1 20 км н/о +21.0 +14.4 66 +25 +25 комфорт 1011.5 999.0
09 21.05 С 1 15 км 9/4 750 м
[Cb cap Ac As Ci ing]
+23.0 +14.8 60 +27 +31 душно 1011.3 998.9
10 21.05 В 1 18 км н/о +24.3 +12.9 49 +26 +26 жарко 1010.7 998.3
11 21.05 Ю 1 20 км н/о +24.9 +16.6 60 +28 +28 жарко 1010.7 998.4
12 21.05 СВ 1 12 км 9/4 600 м
[Cu Sc Ac As Ci sp]
+26.3 +16.8 56 +30 +38 душно 1009.9 997.6
13 21.05 Ю 1 10 км н/о +27.8 +16.7 51 +31 +31 душно 1009.2 997.0
14 21.05 ЮЗ 1 20 км н/о +25.8 +16.1 55 +29 +29 душно 1009.3 997.0
15 21.05 З 1 10 км 8/4 600 м
[Cu Sc Ac As Ci sp]
+25.1 +15.7 56 +28 +35 жарко 1009.4 997.1
16 21.05 Ю 1 20 км н/о +25.8 +13.6 47 +28 +28 жарко 1009.5 997.2
17 21.05 ЮЗ 1 18 км н/о +23.5 +12.5 50 +25 +25 комфорт 1010.3 997.9
18 21.05 З 1 10 км 4/0
[Ac As Ci fib]
+22.5 +13.6 57 +26 +28 жарко 1010.6 998.2 +28.5
19 21.05 В 1 20 км н/о +21.1 +13.5 62 +24 +24 комфорт 1011.3 998.8
20 21.05 Ю 1 20 км н/о +19.4 +14.0 71 +22 +22 комфорт 1012.0 999.4
21 21.05 Ю 1 13 км н/о +17.6 +14.9 84 +19 +19 1012.6 999.9
22 21.05 ЮВ 1 11 км н/о +16.8 +14.6 87 +18 +18 1013.4 1000.7
23 21.05 штиль 0 9000 м н/о +16.0 +14.2 89 +16 +16 1013.6 1000.8
00 22.05 В 1 8000 м н/о +15.5 +14.2 92 +17 +17 1013.8 1001.0
01 22.05 В 2 19 км н/о +15.1 +13.0 87 +15 +15 1013.6 1000.8
02 22.05 Ю 1 17 км н/о +14.6 +13.1 91 +16 +16 1013.7 1000.9
03 22.05 З 3 15 км н/о +14.2 +11.9 86 +13 +13 1014.8 1001.9
04 22.05 СВ 1 14 км н/о +13.1 +11.5 90 +14 +14 1014.8 1001.9
05 22.05 штиль 0 12 км н/о +12.6 +11.3 92 +12 +12 1015.4 1002.5
06 22.05 ЮВ 1 7000 м дымка 1/1 50 м
[St Ci fib]
+12.4 +11.3 93 +13 +14 1016.3 1003.3 +12.3
07 22.05 СЗ 1 14 км н/о +13.1 +12.0 93 +13 +13 1016.8 1003.9
08 22.05 З 1 16 км н/о +15.7 +12.4 81 +17 +17 1017.2 1004.4
09 22.05 З 4 8000 м мгла 1/0
[Ci fib]
+17.1 +12.0 72 +17 +24 1017.5 1004.7
10 22.05 З 3 19 км н/о +19.7 +12.5 63 +22 +22 комфорт 1017.5 1004.8
11 22.05 З 5 20 км н/о +21.2 +11.2 53 +23 +23 комфорт 1017.7 1005.1
12 22.05 З 4 10 км 3/0
[Ci fib]
+22.9 +12.5 52 +26 +39 жарко 1017.6 1005.1
13 22.05 З 1 20 км н/о +23.5 +13.4 53 +26 +26 жарко 1017.6 1005.1
14 22.05 З 2 8000 м н/о +23.6 +14.0 55 +26 +26 жарко 1017.3 1004.8
15 22.05 З 5 8000 м мгла 6/0
[Cs]
+24.7 +10.2 40 +26 +33 жарко 1016.8 1004.4
16 22.05 СЗ 4 20 км н/о +24.3 +10.6 42 +25 +25 комфорт 1016.8 1004.3
17 22.05 СЗ 4 20 км в посл. час морось н/о +23.8 +10.8 44 +25 +25 комфорт 1016.9 1004.4
18 22.05 СЗ 3 10 км 3/0
[Ci fib]
+23.5 +10.2 43 +25 +27 комфорт 1016.7 1004.2 +24.8
19 22.05 СЗ 3 18 км н/о +22.3 +11.1 49 +24 +24 комфорт 1017.0 1004.5
20 22.05 С 2 20 км н/о +20.5 +12.2 59 +23 +23 комфорт 1017.5 1004.9
21 22.05 С 2 20 км н/о +19.2 +12.0 63 +21 +21 комфорт 1017.9 1005.2
22 22.05 С 1 20 км н/о +18.2 +10.8 62 +20 +20 1018.2 1005.5
23 22.05 Ю 1 9000 м н/о +16.2 +11.4 73 +18 +18 1018.1 1005.3
00 23.05 ЮВ 1 20 км н/о +14.5 +11.1 80 +15 +15 1018.1 1005.2
01 23.05 Ю 1 18 км н/о +13.9 +10.9 82 +15 +15 1017.9 1005.0
02 23.05 Ю 1 20 км н/о +13.3 +10.5 83 +14 +14 1017.5 1004.6
03 23.05 Ю 1 20 км н/о +13.0 +10.4 84 +14 +14 1017.4 1004.4
04 23.05 ЮВ 1 20 км н/о +12.6 +9.8 83 +13 +13 1017.1 1004.1
05 23.05 ЮВ 1 17 км н/о +12.5 +9.7 83 +13 +13 1017.2 1004.2
06 23.05 штиль 0 15 км ясно +12.9 +10.1 83 +12 +13 1017.5 1004.5 +12.5
07 23.05 С 1 15 км н/о +15.1 +10.3 73 +16 +16 1017.4 1004.5
08 23.05 З 1 20 км н/о +17.7 +11.5 67 +19 +19 1017.2 1004.5
09 23.05 СЗ 1 15 км ясно +21.7 +13.3 59 +24 +36 комфорт 1017.2 1004.6
10 23.05 З 1 20 км н/о +24.4 +15.3 57 +27 +27 жарко 1016.7 1004.3
11 23.05 З 1 20 км н/о +26.5 +16.4 54 +30 +30 душно 1016.4 1004.1
12 23.05 З 3 10 км ясно +28.1 +17.6 53 +32 +50 душно 1016.0 1003.7
13 23.05 З 3 20 км н/о +29.7 +16.8 46 +33 +33 душно 1015.3 1003.1
14 23.05 З 4 20 км н/о +30.6 +18.0 47 +35 +35 очень
душно
1014.8 1002.7
15 23.05 З 3 10 км 1/1 600 м
[Cu hum]
+30.9 +16.9 43 +34 +46 душно 1014.3 1002.2
16 23.05 З 5 20 км н/о +31.2 +15.2 38 +34 +34 душно 1013.8 1001.7
17 23.05 СЗ 5 20 км слаб. морось н/о +31.1 +13.8 35 +33 +33 душно 1013.6 1001.5
18 23.05 СЗ 3 8000 м мгла ясно +30.8 +14.0 36 +32 +35 жарко 1013.5 1001.4 +31.4
19 23.05 СЗ 3 20 км н/о +29.8 +14.0 38 +32 +32 душно 1014.0 1001.8
20 23.05 СВ 1 20 км н/о +27.8 +14.1 43 +30 +30 жарко 1014.5 1002.2
21 23.05 В 2 20 км н/о +26.0 +13.5 46 +28 +28 жарко 1015.0 1002.6
22 23.05 В 1 20 км н/о +24.4 +13.9 52 +27 +27 жарко 1015.1 1002.7
23 23.05 СЗ 1 20 км н/о +22.7 +14.0 58 +26 +26 жарко 1015.0 1002.5
00 24.05 штиль 0 20 км н/о +21.1 +14.0 64 +24 +24 комфорт 1015.0 1002.4
01 24.05 СВ 1 20 км н/о +20.2 +13.6 66 +23 +23 комфорт 1014.7 1002.1
02 24.05 В 3 20 км н/о +19.8 +12.5 63 +22 +22 комфорт 1014.5 1001.9
03 24.05 В 2 20 км н/о +20.3 +13.3 64 +23 +23 комфорт 1014.2 1001.6
04 24.05 В 3 20 км н/о +22.3 +12.0 52 +25 +25 комфорт 1013.9 1001.4
05 24.05 В 3 20 км н/о +21.8 +11.8 53 +24 +24 комфорт 1013.8 1001.3
06 24.05 СВ 2 15 км ясно +21.5 +11.5 53 +24 +24 комфорт 1013.8 1001.3 +19.2
07 24.05 В 2 20 км н/о +23.6 +12.3 49 +25 +25 комфорт 1013.9 1001.5
08 24.05 СВ 1 20 км н/о +26.9 +15.6 50 +30 +30 душно 1013.6 1001.3
09 24.05 З 1 15 км ясно +27.4 +17.8 56 +32 +44 очень
душно
1013.6 1001.3
10 24.05 З 1 20 км н/о +30.2 +15.9 42 +33 +33 душно 1013.4 1001.2
11 24.05 Ю 2 18 км н/о +32.3 +16.2 38 +35 +35 очень
душно
1013.4 1001.3
12 24.05 З 1 20 км ясно +32.7 +14.3 33 +34 +57 опасность
солнечного
удара
1013.4 1001.3
13 24.05 ЮЗ 1 20 км н/о +33.1 +11.6 27 +33 +33 жарко 1013.4 1001.3
14 24.05 З 2 19 км н/о +32.0 +12.3 30 +32 +32 жарко 1013.4 1001.3
15 24.05 З 2 20 км ясно +30.5 +12.9 34 +32 +46 жарко 1013.2 1001.0
16 24.05 З 3 20 км н/о +28.8 +12.2 36 +30 +30 жарко 1013.1 1000.9
17 24.05 ЮЗ 1 20 км н/о +27.2 +12.0 39 +28 +28 жарко 1013.3 1001.0
18 24.05 ЮЗ 1 15 км 1/0
[Ci sp]
+25.8 +11.5 41 +27 +30 жарко 1013.4 1001.0 +33.2
19 24.05 ЮЗ 1 20 км н/о +25.1 +11.6 43 +27 +27 жарко 1013.3 1000.9
20 24.05 СВ 1 20 км н/о +23.8 +11.8 47 +25 +25 комфорт 1013.3 1000.9
21 24.05 СВ 2 19 км н/о +22.8 +12.7 53 +26 +26 жарко 1013.5 1001.0
22 24.05 В 1 20 км н/о +21.8 +13.2 58 +24 +24 комфорт 1013.7 1001.2
23 24.05 В 1 20 км н/о +20.7 +12.7 60 +24 +24 комфорт 1013.7 1001.1
00 25.05 СВ 2 20 км н/о +20.0 +12.7 63 +22 +22 комфорт 1013.8 1001.2
01 25.05 В 2 20 км н/о +19.4 +12.2 63 +21 +21 комфорт 1013.2 1000.6
02 25.05 В 3 20 км н/о +19.2 +12.0 63 +20 +20 1012.4 999.8
03 25.05 В 3 20 км н/о +18.7 +12.0 65 +20 +20 1012.0 999.4
04 25.05 Ю 1 14 км н/о +18.2 +12.4 69 +20 +20 1012.2 999.5
05 25.05 штиль 0 18 км н/о +17.7 +12.6 72 +18 +18 1012.8 1000.1
06 25.05 СВ 1 20 км 3/0 1500 м
[Ac cast Ci sp]
+17.5 +12.6 73 +19 +20 1013.0 1000.3 +17.4
07 25.05 ЮЗ 1 20 км н/о +19.0 +14.0 73 +22 +22 комфорт 1012.8 1000.2
08 25.05 З 1 20 км н/о +21.3 +14.7 66 +24 +24 комфорт 1013.4 1000.9
09 25.05 З 2 20 км 4/0
[Ac cast Ci sp]
+21.8 +17.0 74 +26 +35 душно 1013.7 1001.2
10 25.05 СЗ 1 19 км н/о +23.0 +16.8 68 +28 +28 душно 1013.2 1000.8
11 25.05 В 3 15 км н/о +23.3 +17.7 71 +29 +29 душно 1013.8 1001.4
12 25.05 СВ 2 8000 м слабый ливневой дождь 10/6 300 м
[Cb cap Ac As]
+23.3 +16.6 66 +28 +31 душно 1013.3 1000.9
13 25.05 СВ 2 19 км слаб. дождь н/о +22.0 +15.1 65 +26 +26 душно 1012.8 1000.3 0.2
14 25.05 Ю 2 13 км н/о +21.2 +17.0 77 +25 +25 комфорт 1012.1 999.6
15 25.05 ЮЗ 2 6000 м мгла {гроза, ливн. осадки} 8/5 200 м
[Sc Ac und Ci sp]
+20.8 +17.0 79 +25 +31 комфорт 1012.6 1000.1 0.2
16 25.05 Ю 1 13 км н/о +21.6 +17.2 76 +26 +26 душно 1012.4 999.9
17 25.05 С 1 17 км н/о +22.5 +17.2 72 +27 +27 душно 1011.4 999.0
18 25.05 Ю 1 12 км {гроза, ливн. осадки} 8/5 300 м
[Cu Sc Ac und]
+21.9 +18.1 79 +27 +28 душно 1011.3 998.8 +23.8
19 25.05 Ю 1 10 км н/о +19.8 +16.6 82 +24 +24 комфорт 1011.2 998.6
20 25.05 ЮЗ 1 10 км н/о +19.5 +16.7 84 +23 +23 комфорт 1011.8 999.2
21 25.05 Ю 1 н/о н/о +17.7 +16.0 90 +19 +19 1012.4 999.7
22 25.05 В 2 3200 м н/о +17.1 +16.0 93 +18 +18 1012.3 999.6
23 25.05 Ю 1 2600 м н/о +16.8 +15.8 94 +18 +18 1012.2 999.5
00 26.05 ЮЗ 1 4800 м н/о +16.8 +15.8 94 +18 +18 1011.8 999.1
01 26.05 З 1 2400 м н/о +16.7 +16.1 96 +18 +18 1011.3 998.6
02 26.05 Ю 1 1300 м в посл. час дождь н/о +16.6 +16.0 96 +18 +18 1010.8 998.1
03 26.05 В 1 2500 м слаб. дождь н/о +16.3 +15.8 97 +17 +17 1011.2 998.5 0.4
04 26.05 СЗ 1 800 м в посл. час дождь н/о +16.2 +16.0 99 +17 +17 1009.6 996.9 2

 

Местоположение метеостанции Pontevedra (Испания): широта 42.43 долгота -8.62 высота над уровнем моря 108 м.

В архиве по умолчанию представлена погода в Pontevedra за последнюю неделю. Архивные данные за месяц целиком и за предыдущие месяцы, начиная с января 2011 года, Вы можете получить, выбрав интересующий диапазон дат из раскрывающегося списка и нажав кнопку "Ввод!".

Внимание! Время в таблицах - всемирное. Для получения местного времени необходимо прибавить поправку, которая в Pontevedra равна 1 ч.

Смотрите также архив погоды в соседних городах и на ближайших метеорологических станциях:

Погода в Vigo (Испания) (22 км)
Погода в Santiago (Испания) (55 км)
Погода в Orense (Испания) (63 км)
Погода в Viana Do Castelo (Португалия) (90 км)
Погода в La Coruna (Испания) (106 км)
Погода в Lugo (Испания) (123 км)
Погода в Porto (Португалия) (134 км)
Погода в Vila Real (Португалия) (149 км)
Погода в Ponferrada (Испания) (168 км)
Погода в Ovar (Португалия) (168 км)

Пояснения к столбцам:

Ветер - указаны скорость ветра в м/с - средняя за 10 мин, порывы в срок и между сроками (в фигурных скобках) и направление, откуда дует ветер: С - северный, СВ - северо-восточный, В - восточный, ЮВ - юго-восточный, Ю - южный, ЮЗ - юго-западный, З - западный, СЗ - северо-западный.
Видимость - горизонтальная дальность видимости в метрах или километрах. При видимости от 1 до 10 км при отсутствии осадков обычно наблюдается дымка, при ухудшении видимости до 1 км и менее - туман. В сухую погоду видимость может ухудшаться дымом, пылью или мглою.
Явления - указаны атмосферные явления, наблюдавшиеся в срок или в последний час перед сроком; фигурными скобками обозначены явления, наблюдавшиеся между сроками (за 1-3 часа до срока); квадратными скобками обозначены град или гололедные отложения с указанием их диаметра в мм.
Облачность - указаны через наклонную черту общая и нижняя облачность в баллах и высота нижней границы облаков в метрах; квадратными скобками обозначены формы облаков: Ci - перистые, Cs - перисто-слоистые, Cc - перисто-кучевые, Ac - высококучевые, As - высокослоистые, Sc - слоисто-кучевые, Ns - слоисто-дождевые, Cu - кучевые, Cb - кучево-дождевые. Подробнее классификацию облаков см. в Атласе облаков (PDF).
T - Температура воздуха - температура, измеренная на высоте 2 м над землей.
Td - Температура точки росы - температура, при понижении до которой содержащийся в воздухе водяной пар достигнет насыщения.
f - Относительная влажность воздуха - влажноcть воздуха, измеренная на высоте 2 м над землей.
Te - Эффективная температура - температура, которую ощущает одетый по сезону человек в тени. Характеристика душности погоды. При расчете учитывается влияние влажности воздуха и скорости ветра на теплоощущения человека.
Tes - Эффективная температура на солнце - температура, которую ощущает человек, с поправкой на солнечный нагрев. Характеристика знойности погоды. Зависит от высоты солнца над горизонтом, облачности и скорости ветра. Ночью, в пасмурную погоду, а также при ветре 12 м/с и более поправка равна нулю.
P - Атмосферное давление - приведенное к уровню моря атмосферное давление.
Po - Атмосферное давление - измеренное на уровне метеостанции атмосферное давление.
Tmin - Минимальная температура - минимум температуры воздуха на высоте 2 м над землей.
Tmax - Максимальная температура - максимум температуры воздуха на высоте 2 м над землей.
R - Количество осадков - Количество выпавших осадков за период времени, мм. При наведении курсора мыши на число - период времени, за который выпало указанное количество осадков.
R24 - Количество осадков - Количество выпавших осадков за 24 часа, мм.
S - Снежный покров - Высота снежного покрова, см. При наведении курсора мыши на число - состояние снежного покрова и степень покрытия местности в баллах.